When you browse on this site, cookies collect data to enhance your experience and personalize the content and advertising you see.
Visit our Privacy Policy to learn more. By continuing to use the site, you agree to this use of cookies and data.
  • In Hungary
  • List of Countries
  • For 7 days
  • Water Temperature
  • Satellite Maps
  • Weather Map
  • News
  • Weather Widgets
  • user-avatar
    Login

    Hourly Weather Bystryanskiy

    Today, 17 November, Saturday

    Time Temperature Precipitation Wind Pressure Humidity
    00:00 -2°C° 0.2 mm 7 mps 763 mmHg 87%
    01:00 -2°C° 0.2 mm 8 mps 763 mmHg 87%
    02:00 -2°C° 0.2 mm 8 mps 763 mmHg 87%
    03:00 -3°C° 0 mm 6 mps 763 mmHg 86%
    04:00 -3°C° 0.2 mm 6 mps 763 mmHg 86%
    05:00 -3°C° 0.2 mm 7 mps 763 mmHg 86%
    06:00 -3°C° 0.2 mm 7 mps 763 mmHg 86%
    07:00 -3°C° 0.2 mm 7 mps 763 mmHg 87%
    08:00 -3°C° 0.2 mm 7 mps 763 mmHg 88%
    09:00 -3°C° 0 mm 6 mps 764 mmHg 89%
    10:00 -3°C° 0.1 mm 6 mps 764 mmHg 89%
    11:00 -3°C° 0.1 mm 6 mps 764 mmHg 88%
    12:00 -3°C° 0.1 mm 6 mps 764 mmHg 88%
    13:00 -2°C° 0.1 mm 5 mps 764 mmHg 87%
    14:00 -2°C° 0.1 mm 5 mps 764 mmHg 86%
    15:00 -2°C° 0 mm 4 mps 763 mmHg 79%
    16:00 -2°C° 0 mm 4 mps 763 mmHg 80%
    17:00 -2°C° 0 mm 3 mps 764 mmHg 81%
    18:00 -2°C° 0 mm 3 mps 764 mmHg 82%
    19:00 -2°C° 0 mm 3 mps 763 mmHg 83%
    20:00 -2°C° 0 mm 2 mps 763 mmHg 84%
    21:00 -2°C° 0 mm 2 mps 763 mmHg 85%
    22:00 -3°C° 0 mm 2 mps 763 mmHg 86%
    23:00 -3°C° 0 mm 2 mps 763 mmHg 86%

    Tomorrow, 18 November, Sunday

    Time Temperature Precipitation Wind Pressure Humidity
    00:00 -3°C° 0 mm 2 mps 763 mmHg 87%
    01:00 -3°C° 0 mm 2 mps 762 mmHg 88%
    02:00 -3°C° 0 mm 2 mps 762 mmHg 88%
    03:00 -2°C° 0 mm 2 mps 762 mmHg 89%
    04:00 0°C° 0 mm 1 mps 761 mmHg 90%
    05:00 0°C° 0 mm 1 mps 761 mmHg 90%
    06:00 -1°C° 0 mm 1 mps 761 mmHg 91%
    07:00 0°C° 0 mm 1 mps 761 mmHg 91%
    08:00 0°C° 0 mm 1 mps 761 mmHg 90%
    09:00 +1°C° 0 mm 1 mps 761 mmHg 90%
    10:00 +1°C° 0 mm 1 mps 761 mmHg 91%
    11:00 +2°C° 0 mm 1 mps 760 mmHg 92%
    12:00 +2°C° 0 mm 1 mps 760 mmHg 94%
    13:00 +2°C° 0 mm 1 mps 760 mmHg 94%
    14:00 +2°C° 0 mm 1 mps 760 mmHg 94%
    15:00 +3°C° 0 mm 1 mps 760 mmHg 94%
    16:00 +2°C° 0 mm 1 mps 760 mmHg 94%
    17:00 +2°C° 0 mm 1 mps 760 mmHg 94%
    18:00 +2°C° 0 mm 1 mps 760 mmHg 94%
    19:00 +2°C° 0 mm 1 mps 760 mmHg 94%
    20:00 +2°C° 0 mm 1 mps 760 mmHg 94%
    21:00 +1°C° 0 mm 2 mps 760 mmHg 94%
    22:00 +1°C° 0 mm 2 mps 760 mmHg 94%
    23:00 +1°C° 0 mm 2 mps 760 mmHg 93%

    Day after tomorrow, 19 November, Monday

    Time Temperature Precipitation Wind Pressure Humidity
    00:00 +1°C° 0 mm 2 mps 760 mmHg 93%
    01:00 +1°C° 0 mm 2 mps 760 mmHg 93%
    02:00 +1°C° 0 mm 2 mps 760 mmHg 93%
    03:00 +1°C° 0 mm 2 mps 760 mmHg 92%
    04:00 +1°C° 0 mm 2 mps 760 mmHg 93%
    05:00 +1°C° 0 mm 2 mps 760 mmHg 93%
    06:00 +1°C° 0 mm 2 mps 760 mmHg 93%
    07:00 +1°C° 0 mm 3 mps 760 mmHg 94%
    08:00 +1°C° 0 mm 3 mps 760 mmHg 95%
    09:00 +1°C° 0 mm 3 mps 760 mmHg 95%
    10:00 +2°C° 0 mm 3 mps 760 mmHg 94%
    11:00 +2°C° 0 mm 3 mps 760 mmHg 94%
    12:00 +3°C° 0 mm 4 mps 760 mmHg 93%
    13:00 +3°C° 0 mm 4 mps 760 mmHg 92%
    14:00 +3°C° 0 mm 4 mps 759 mmHg 90%
    15:00 +4°C° 0 mm 4 mps 759 mmHg 89%
    16:00 +3°C° 0 mm 4 mps 759 mmHg 89%
    17:00 +1°C° 0 mm 4 mps 759 mmHg 89%
    18:00 +1°C° 0 mm 4 mps 759 mmHg 90%
    19:00 +1°C° 0 mm 4 mps 759 mmHg 89%
    20:00 +1°C° 0 mm 5 mps 759 mmHg 89%
    21:00 +1°C° 0 mm 5 mps 759 mmHg 88%
    22:00 +1°C° 0 mm 5 mps 759 mmHg 88%
    23:00 +1°C° 0 mm 5 mps 759 mmHg 87%

    20 November, Tuesday

    Time Temperature Precipitation Wind Pressure Humidity
    00:00 +2°C° 0 mm 5 mps 759 mmHg 87%
    01:00 +1°C° 0.1 mm 5 mps 758 mmHg 87%
    02:00 +1°C° 0.1 mm 5 mps 758 mmHg 88%
    03:00 +1°C° 0.1 mm 5 mps 758 mmHg 88%
    04:00 +1°C° 0.3 mm 5 mps 758 mmHg 88%
    05:00 +1°C° 0.3 mm 5 mps 757 mmHg 88%
    06:00 +1°C° 0.3 mm 6 mps 757 mmHg 88%
    07:00 +1°C° 0.8 mm 6 mps 757 mmHg 88%
    08:00 +2°C° 0.8 mm 6 mps 757 mmHg 88%
    09:00 +2°C° 0.8 mm 6 mps 757 mmHg 89%
    10:00 +2°C° 0.9 mm 6 mps 757 mmHg 89%
    11:00 +2°C° 0.9 mm 6 mps 756 mmHg 89%
    12:00 +2°C° 0.9 mm 6 mps 756 mmHg 90%
    13:00 +3°C° 0.5 mm 6 mps 756 mmHg 90%
    14:00 +3°C° 0.5 mm 6 mps 755 mmHg 90%
    15:00 +3°C° 0.5 mm 6 mps 755 mmHg 90%
    16:00 +3°C° 0.9 mm 6 mps 755 mmHg 91%
    17:00 +3°C° 0.9 mm 6 mps 755 mmHg 92%
    18:00 +3°C° 0.9 mm 6 mps 754 mmHg 93%
    19:00 +5°C° 1.3 mm 5 mps 754 mmHg 94%
    20:00 +5°C° 1.3 mm 5 mps 754 mmHg 94%
    21:00 +5°C° 1.3 mm 4 mps 754 mmHg 95%
    22:00 +5°C° 0.3 mm 3 mps 754 mmHg 95%
    23:00 +5°C° 0.3 mm 3 mps 754 mmHg 95%

    21 November, Wednesday

    Time Temperature Precipitation Wind Pressure Humidity
    00:00 +6°C° 0.3 mm 2 mps 754 mmHg 95%
    01:00 +5°C° 0.1 mm 3 mps 754 mmHg 95%
    02:00 +5°C° 0.1 mm 3 mps 754 mmHg 95%
    03:00 +4°C° 0.1 mm 3 mps 755 mmHg 95%
    04:00 +4°C° 0 mm 3 mps 755 mmHg 94%
    05:00 +3°C° 0 mm 3 mps 755 mmHg 93%
    06:00 +3°C° 0 mm 4 mps 755 mmHg 92%
    07:00 +3°C° 0 mm 3 mps 755 mmHg 91%
    08:00 +3°C° 0 mm 3 mps 755 mmHg 89%
    09:00 +2°C° 0 mm 3 mps 756 mmHg 88%
    10:00 +3°C° 0 mm 3 mps 756 mmHg 86%
    11:00 +3°C° 0 mm 3 mps 756 mmHg 83%
    12:00 +3°C° 0 mm 3 mps 756 mmHg 81%
    13:00 +3°C° 0 mm 3 mps 756 mmHg 79%
    14:00 +3°C° 0 mm 3 mps 755 mmHg 77%
    15:00 +3°C° 0 mm 3 mps 755 mmHg 75%
    16:00 +3°C° 0 mm 3 mps 755 mmHg 75%
    17:00 +2°C° 0 mm 3 mps 756 mmHg 76%
    18:00 +2°C° 0 mm 3 mps 756 mmHg 76%
    19:00 +2°C° 0 mm 3 mps 756 mmHg 75%
    20:00 +2°C° 0 mm 3 mps 756 mmHg 74%
    21:00 +2°C° 0 mm 2 mps 756 mmHg 73%
    22:00 +1°C° 0 mm 3 mps 756 mmHg 72%
    23:00 +1°C° 0 mm 3 mps 756 mmHg 72%

    22 November, Thursday

    Time Temperature Precipitation Wind Pressure Humidity
    00:00 +1°C° 0 mm 3 mps 756 mmHg 71%
    01:00 0°C° 0 mm 3 mps 756 mmHg 72%
    02:00 0°C° 0 mm 3 mps 756 mmHg 72%
    03:00 -1°C° 0 mm 3 mps 756 mmHg 73%
    04:00 -1°C° 0 mm 3 mps 756 mmHg 75%
    05:00 -2°C° 0 mm 3 mps 756 mmHg 78%
    06:00 -2°C° 0 mm 3 mps 756 mmHg 80%
    07:00 -2°C° 0 mm 3 mps 756 mmHg 78%
    08:00 -3°C° 0 mm 4 mps 756 mmHg 76%
    09:00 -2°C° 0 mm 4 mps 756 mmHg 75%
    10:00 -2°C° 0 mm 4 mps 756 mmHg 70%
    11:00 0°C° 0 mm 3 mps 756 mmHg 65%
    12:00 +1°C° 0 mm 3 mps 756 mmHg 60%
    13:00 +1°C° 0 mm 3 mps 756 mmHg 60%
    14:00 +1°C° 0 mm 3 mps 756 mmHg 60%
    15:00 +1°C° 0 mm 3 mps 756 mmHg 60%
    16:00 0°C° 0 mm 3 mps 756 mmHg 65%
    17:00 -1°C° 0 mm 3 mps 756 mmHg 70%
    18:00 -2°C° 0 mm 3 mps 756 mmHg 76%
    19:00 -2°C° 0 mm 3 mps 757 mmHg 77%
    20:00 -4°C° 0 mm 3 mps 757 mmHg 79%
    21:00 -4°C° 0 mm 3 mps 757 mmHg 80%
    22:00 -4°C° 0 mm 3 mps 757 mmHg 79%
    23:00 -4°C° 0 mm 3 mps 757 mmHg 79%
    Show more